| time (UTC) | temp C | wind direction | speed KPH | gust KPH | rain 1hr cm | rain 24hr cm | rain mn cm | humidity % | barometer mb |
| 20260505184520 | -1 | 350 | 0.0 | 8.0 | 0.00 | 0.71 | 0.13 | 92 | 1015.1 |
| 20260505184020 | -1 | 39 | 3.2 | 9.7 | 0.00 | 0.71 | 0.13 | 92 | 1015.1 |
| 20260505183520 | -1 | 97 | 1.6 | 4.8 | 0.00 | 0.71 | 0.13 | 92 | 1015.2 |
| 20260505183024 | -1 | 87 | 3.2 | 4.8 | 0.00 | 0.71 | 0.13 | 92 | 1015.2 |
| 20260505182520 | -1 | 89 | 1.6 | 3.2 | 0.00 | 0.71 | 0.13 | 92 | 1015.3 |
| 20260505182018 | -1 | 81 | 0.0 | 6.4 | 0.00 | 0.71 | 0.13 | 92 | 1015.4 |
| 20260505181518 | -1 | 6 | 0.0 | 6.4 | 0.00 | 0.71 | 0.13 | 92 | 1015.2 |
| 20260505181025 | -1 | 84 | 0.0 | 8.0 | 0.00 | 0.71 | 0.13 | 92 | 1015.3 |
| 20260505180519 | -1 | 49 | 3.2 | 8.0 | 0.00 | 0.71 | 0.13 | 92 | 1015.4 |
| 20260505180021 | -1 | 49 | 0.0 | 4.8 | 0.00 | 0.71 | 0.13 | 93 | 1015.4 |
| 20260505175518 | -1 | 82 | 0.0 | 4.8 | 0.00 | 0.71 | 0.13 | 92 | 1015.3 |
| 20260505175020 | -1 | 96 | 0.0 | 4.8 | 0.00 | 0.71 | 0.13 | 93 | 1015.3 |
| 20260505174518 | -1 | 71 | 0.0 | 4.8 | 0.00 | 0.71 | 0.13 | 93 | 1015.3 |
| 20260505174018 | -1 | 93 | 3.2 | 4.8 | 0.00 | 0.71 | 0.13 | 93 | 1015.4 |
| 20260505173517 | -1 | 59 | 0.0 | 1.6 | 0.00 | 0.71 | 0.13 | 93 | 1015.3 |
| 20260505173017 | -1 | 51 | 0.0 | 3.2 | 0.00 | 0.71 | 0.13 | 93 | 1015.5 |
| 20260505172518 | -1 | 77 | 0.0 | 3.2 | 0.00 | 0.71 | 0.13 | 93 | 1015.5 |
| 20260505172018 | -2 | 46 | 0.0 | 3.2 | 0.00 | 0.71 | 0.13 | 93 | 1015.5 |
| 20260505171516 | -2 | 87 | 0.0 | 3.2 | 0.00 | 0.71 | 0.13 | 93 | 1015.5 |
| 20260505171018 | -2 | 65 | 0.0 | 8.0 | 0.00 | 0.71 | 0.13 | 93 | 1015.6 |
| 20260505170516 | -1 | 343 | 0.0 | 8.0 | 0.00 | 0.71 | 0.13 | 93 | 1015.5 |
| 20260505170017 | -1 | 51 | 1.6 | 6.4 | 0.00 | 0.71 | 0.13 | 93 | 1015.3 |
| 20260505165515 | -1 | 29 | 1.6 | 6.4 | 0.00 | 0.71 | 0.13 | 93 | 1015.3 |
| 20260505165015 | -1 | 3 | 3.2 | 6.4 | 0.00 | 0.71 | 0.13 | 93 | 1015.4 |
| 20260505164515 | -1 | 61 | 1.6 | 6.4 | 0.00 | 0.71 | 0.13 | 93 | 1015.4 |
| 20260505164015 | -1 | 82 | 0.0 | 8.0 | 0.00 | 0.71 | 0.13 | 93 | 1015.3 |
| 20260505163513 | -1 | 115 | 4.8 | 8.0 | 0.00 | 0.71 | 0.13 | 93 | 1015.3 |
| 20260505163013 | -1 | 12 | 0.0 | 6.4 | 0.00 | 0.71 | 0.13 | 93 | 1015.3 |
| 20260505162514 | -1 | 81 | 3.2 | 6.4 | 0.00 | 0.71 | 0.13 | 93 | 1015.3 |
| 20260505162013 | -1 | 73 | 1.6 | 6.4 | 0.00 | 0.71 | 0.13 | 94 | 1015.2 |
| 20260505161513 | -1 | 60 | 1.6 | 6.4 | 0.00 | 0.71 | 0.13 | 93 | 1015.2 |
| 20260505161013 | -1 | 60 | 0.0 | 6.4 | 0.00 | 0.71 | 0.13 | 93 | 1015.4 |
| 20260505160513 | -1 | 19 | 1.6 | 4.8 | 0.00 | 0.71 | 0.13 | 94 | 1015.4 |
| 20260505153013 | -1 | 40 | 3.2 | 8.0 | 0.00 | 0.71 | 0.13 | 93 | 1015.5 |
| 20260505152512 | -1 | 33 | 1.6 | 6.4 | 0.00 | 0.71 | 0.13 | 93 | 1015.5 |
| 20260505152010 | -1 | 75 | 3.2 | 6.4 | 0.00 | 0.71 | 0.13 | 93 | 1015.5 |
| 20260505151510 | -1 | 74 | 0.0 | 4.8 | 0.00 | 0.71 | 0.13 | 93 | 1015.4 |
| 20260505151011 | -1 | 56 | 1.6 | 6.4 | 0.00 | 0.71 | 0.13 | 93 | 1015.4 |
| 20260505150511 | -1 | 71 | 1.6 | 6.4 | 0.00 | 0.71 | 0.13 | 93 | 1015.3 |
| 20260505140505 | -2 | 66 | 1.6 | 6.4 | 0.00 | 0.71 | 0.13 | 94 | 1015.5 |
| 20260505124559 | -1 | 94 | 0.0 | 3.2 | 0.00 | 0.71 | 0.13 | 95 | 1014.5 |
| 20260505124053 | -1 | 84 | 0.0 | 1.6 | 0.00 | 0.71 | 0.13 | 95 | 1014.4 |
| 20260505123555 | -1 | 85 | 0.0 | 1.6 | 0.00 | 0.71 | 0.13 | 95 | 1014.5 |
| 20260505123057 | -1 | 68 | 0.0 | 3.2 | 0.00 | 0.71 | 0.13 | 95 | 1014.6 |
| 20260505122551 | -1 | 338 | 0.0 | 3.2 | 0.00 | 0.71 | 0.13 | 95 | 1014.5 |
| 20260505122051 | -1 | 47 | 1.6 | 3.2 | 0.00 | 0.71 | 0.13 | 95 | 1014.4 |
| 20260505121550 | -1 | 75 | 0.0 | 3.2 | 0.00 | 0.71 | 0.13 | 95 | 1014.5 |
| 20260505121051 | -1 | 77 | 0.0 | 4.8 | 0.00 | 0.71 | 0.13 | 95 | 1014.4 |
| 20260505120550 | -1 | 58 | 1.6 | 6.4 | 0.00 | 0.71 | 0.13 | 95 | 1014.4 |
| 20260505120101 | -1 | 64 | 1.6 | 6.4 | 0.00 | 0.71 | 0.13 | 95 | 1014.5 |
| 20260505115551 | -1 | 91 | 3.2 | 6.4 | 0.00 | 0.71 | 0.13 | 95 | 1014.4 |
| 20260505115050 | -1 | 86 | 1.6 | 3.2 | 0.00 | 0.71 | 0.13 | 95 | 1014.3 |
| 20260505114548 | -1 | 60 | 0.0 | 3.2 | 0.00 | 0.71 | 0.13 | 95 | 1014.2 |
| 20260505114049 | -1 | 140 | 0.0 | 3.2 | 0.00 | 0.71 | 0.13 | 95 | 1014.2 |
| 20260505113548 | -1 | 91 | 0.0 | 1.6 | 0.00 | 0.71 | 0.13 | 95 | 1014.3 |
| 20260505113106 | -1 | 84 | 0.0 | 3.2 | 0.00 | 0.71 | 0.13 | 95 | 1014.3 |
| 20260505112546 | -1 | 66 | 0.0 | 4.8 | 0.00 | 0.71 | 0.13 | 95 | 1014.4 |
| 20260505112046 | -1 | 70 | 1.6 | 4.8 | 0.00 | 0.71 | 0.13 | 95 | 1014.3 |
| 20260505111546 | -1 | 82 | 3.2 | 6.4 | 0.00 | 0.71 | 0.13 | 95 | 1014.2 |
| 20260505111048 | -1 | 88 | 3.2 | 8.0 | 0.00 | 0.71 | 0.13 | 95 | 1014.2 |
| 20260505110546 | -1 | 97 | 3.2 | 8.0 | 0.00 | 0.71 | 0.13 | 95 | 1014.3 |
| 20260505102039 | 0 | 79 | 0.0 | 8.0 | 0.03 | 0.71 | 0.13 | 95 | 1014.1 |
| 20260505101536 | 0 | 140 | 1.6 | 8.0 | 0.05 | 0.71 | 0.13 | 95 | 1014.0 |
| 20260505101039 | 0 | 56 | 4.8 | 11.3 | 0.05 | 0.71 | 0.13 | 95 | 1014.1 |
| 20260505100536 | 0 | 68 | 4.8 | 12.9 | 0.05 | 0.71 | 0.13 | 95 | 1014.0 |
| 20260505100033 | 0 | 61 | 3.2 | 9.7 | 0.05 | 0.71 | 0.13 | 95 | 1014.0 |
| 20260505095531 | 0 | 51 | 3.2 | 11.3 | 0.05 | 0.71 | 0.13 | 95 | 1013.9 |
| 20260505095033 | 1 | 37 | 0.0 | 6.4 | 0.05 | 0.71 | 0.13 | 95 | 1013.7 |
| 20260505094534 | 1 | 58 | 0.0 | 6.4 | 0.05 | 0.71 | 0.13 | 95 | 1013.7 |
| 20260505094030 | 1 | 51 | 0.0 | 3.2 | 0.05 | 0.71 | 0.13 | 95 | 1013.6 |
| 20260505093530 | 1 | 64 | 0.0 | 9.7 | 0.05 | 0.71 | 0.10 | 95 | 1013.7 |
| 20260505093029 | 1 | 78 | 3.2 | 9.7 | 0.05 | 0.71 | 0.10 | 96 | 1013.6 |
| 20260505092529 | 1 | 94 | 1.6 | 6.4 | 0.05 | 0.71 | 0.10 | 96 | 1013.4 |
| 20260505092028 | 1 | 75 | 1.6 | 3.2 | 0.05 | 0.71 | 0.10 | 96 | 1013.4 |
| 20260505091526 | 1 | 94 | 0.0 | 1.6 | 0.03 | 0.69 | 0.08 | 96 | 1013.5 |
| 20260505091027 | 1 | 142 | 0.0 | 0.0 | 0.03 | 0.69 | 0.08 | 96 | 1013.6 |
| 20260505090526 | 1 | 148 | 0.0 | 0.0 | 0.03 | 0.69 | 0.08 | 96 | 1013.5 |
| 20260505090025 | 1 | 278 | 0.0 | 0.0 | 0.03 | 0.69 | 0.08 | 96 | 1013.5 |
| 20260505085526 | 1 | 278 | 0.0 | 0.0 | 0.03 | 0.69 | 0.08 | 96 | 1013.6 |
| 20260505085025 | 1 | 278 | 0.0 | 0.0 | 0.08 | 0.69 | 0.08 | 96 | 1013.6 |
| 20260505084541 | 1 | 278 | 0.0 | 0.0 | 0.08 | 0.69 | 0.08 | 96 | 1013.8 |
| 20260505084022 | 1 | 278 | 0.0 | 0.0 | 0.05 | 0.66 | 0.05 | 96 | 1013.8 |
| 20260505083522 | 1 | 278 | 0.0 | 0.0 | 0.05 | 0.66 | 0.05 | 96 | 1013.8 |
| 20260505083021 | 1 | 304 | 0.0 | 0.0 | 0.05 | 0.66 | 0.05 | 96 | 1013.9 |
| 20260505082521 | 1 | 304 | 0.0 | 0.0 | 0.05 | 0.66 | 0.05 | 95 | 1013.9 |
| 20260505082020 | 1 | 304 | 0.0 | 0.0 | 0.05 | 0.66 | 0.05 | 95 | 1014.0 |
| 20260505081520 | 1 | 304 | 0.0 | 1.6 | 0.05 | 0.66 | 0.05 | 95 | 1014.0 |
| 20260505081020 | 1 | 304 | 0.0 | 3.2 | 0.05 | 0.66 | 0.05 | 95 | 1014.3 |
| 20260505080519 | 1 | 309 | 0.0 | 1.6 | 0.05 | 0.66 | 0.05 | 96 | 1014.3 |
| 20260505080020 | 1 | 276 | 0.0 | 1.6 | 0.05 | 0.66 | 0.05 | 96 | 1014.2 |
| 20260505075518 | 1 | 275 | 0.0 | 1.6 | 0.05 | 0.66 | 0.05 | 96 | 1014.2 |
| 20260505075017 | 1 | 276 | 0.0 | 0.0 | 0.00 | 0.61 | 0.00 | 95 | 1014.1 |
| 20260505074517 | 1 | 276 | 0.0 | 1.6 | 0.00 | 0.61 | 0.00 | 95 | 1014.3 |
| 20260505074017 | 1 | 276 | 0.0 | 1.6 | 0.00 | 0.61 | 0.00 | 95 | 1014.4 |
| 20260505073517 | 1 | 275 | 0.0 | 0.0 | 0.00 | 0.61 | 0.00 | 95 | 1014.5 |
| 20260505073016 | 1 | 276 | 0.0 | 3.2 | 0.00 | 0.61 | 0.00 | 95 | 1014.5 |
| 20260505072517 | 1 | 276 | 0.0 | 3.2 | 0.00 | 0.61 | 0.00 | 95 | 1014.5 |
| 20260505072019 | 1 | 280 | 0.0 | 1.6 | 0.00 | 0.61 | 0.00 | 95 | 1014.5 |
| 20260505071518 | 1 | 285 | 0.0 | 0.0 | 0.00 | 0.61 | 0.00 | 95 | 1014.5 |
| 20260505071015 | 1 | 302 | 0.0 | 0.0 | 0.00 | 0.61 | 0.00 | 95 | 1014.6 |
| 20260505070517 | 0 | 270 | 0.0 | 0.0 | 0.00 | 0.61 | 0.00 | 95 | 1014.7 |
| 20260505070014 | 0 | 270 | 0.0 | 0.0 | 0.00 | 0.61 | 0.00 | 95 | 1014.6 |
| 20260505065516 | 0 | 271 | 0.0 | 0.0 | 0.00 | 0.61 | 0.00 | 95 | 1014.6 |
| 20260505065012 | 0 | 276 | 0.0 | 0.0 | 0.00 | 0.61 | 0.00 | 95 | 1014.5 |
| 20260505064512 | 0 | 276 | 0.0 | 0.0 | 0.00 | 0.61 | 0.00 | 95 | 1014.5 |
| 20260505064017 | 0 | 276 | 0.0 | 0.0 | 0.00 | 0.61 | 0.00 | 95 | 1014.5 |
| 20260505063512 | 0 | 274 | 0.0 | 0.0 | 0.00 | 0.61 | 0.00 | 95 | 1014.6 |
| 20260505063011 | 0 | 276 | 0.0 | 0.0 | 0.00 | 0.61 | 0.00 | 95 | 1014.6 |
| 20260505062511 | 0 | 294 | 0.0 | 0.0 | 0.00 | 0.61 | 0.00 | 95 | 1014.5 |
| 20260505062010 | 0 | 294 | 0.0 | 0.0 | 0.00 | 0.61 | 0.00 | 95 | 1014.5 |
| 20260505061512 | 0 | 294 | 0.0 | 0.0 | 0.00 | 0.61 | 0.00 | 95 | 1014.2 |
| 20260505061009 | 0 | 293 | 0.0 | 0.0 | 0.00 | 0.61 | 0.00 | 95 | 1014.2 |
| 20260505060508 | 0 | 295 | 0.0 | 0.0 | 0.00 | 0.61 | 0.00 | 95 | 1014.2 |
| 20260505060009 | 0 | 297 | 0.0 | 3.2 | 0.00 | 0.61 | 0.61 | 95 | 1014.2 |
| 20260505055507 | 0 | 255 | 0.0 | 4.8 | 0.00 | 0.61 | 0.61 | 95 | 1014.1 |
| 20260505055007 | 0 | 292 | 0.0 | 4.8 | 0.00 | 0.61 | 0.61 | 95 | 1014.2 |
| 20260505054507 | 0 | 292 | 0.0 | 3.2 | 0.00 | 0.61 | 0.61 | 95 | 1014.1 |
| 20260505054010 | 0 | 308 | 0.0 | 3.2 | 0.00 | 0.61 | 0.61 | 95 | 1014.1 |
| 20260505053507 | 0 | 238 | 0.0 | 0.0 | 0.00 | 0.61 | 0.61 | 95 | 1014.0 |
| 20260505053006 | 0 | 218 | 0.0 | 0.0 | 0.00 | 0.61 | 0.61 | 95 | 1013.9 |
| 20260505052505 | 0 | 329 | 0.0 | 0.0 | 0.00 | 0.61 | 0.61 | 95 | 1014.0 |
| 20260505052005 | 0 | 329 | 0.0 | 0.0 | 0.00 | 0.61 | 0.61 | 95 | 1013.9 |
| 20260505051508 | 0 | 304 | 0.0 | 0.0 | 0.00 | 0.61 | 0.61 | 95 | 1013.9 |
| 20260505051006 | 0 | 269 | 0.0 | 0.0 | 0.00 | 0.61 | 0.61 | 94 | 1013.9 |
| 20260505050506 | 0 | 267 | 0.0 | 0.0 | 0.00 | 0.61 | 0.61 | 95 | 1013.8 |
| 20260505041504 | 0 | 295 | 0.0 | 0.0 | 0.03 | 0.61 | 0.61 | 94 | 1014.0 |
| 20260505041003 | 0 | 295 | 0.0 | 0.0 | 0.03 | 0.61 | 0.61 | 94 | 1014.1 |
| 20260505040503 | 0 | 295 | 0.0 | 0.0 | 0.03 | 0.61 | 0.61 | 94 | 1014.4 |
| 20260505040003 | 0 | 295 | 0.0 | 0.0 | 0.05 | 0.61 | 0.61 | 94 | 1014.5 |
| 20260505035501 | 0 | 295 | 0.0 | 0.0 | 0.05 | 0.61 | 0.61 | 93 | 1014.5 |
| 20260505035001 | 0 | 295 | 0.0 | 0.0 | 0.08 | 0.61 | 0.61 | 93 | 1014.3 |
| 20260505034502 | 0 | 295 | 0.0 | 0.0 | 0.08 | 0.61 | 0.61 | 93 | 1014.3 |
| 20260505034003 | 0 | 295 | 0.0 | 0.0 | 0.08 | 0.61 | 0.61 | 93 | 1014.2 |
| 20260505033505 | 1 | 295 | 0.0 | 0.0 | 0.08 | 0.61 | 0.61 | 93 | 1014.1 |
| 20260505033002 | 1 | 295 | 0.0 | 0.0 | 0.08 | 0.61 | 0.61 | 93 | 1014.2 |
| 20260505032501 | 1 | 295 | 0.0 | 0.0 | 0.10 | 0.61 | 0.61 | 93 | 1014.4 |
| 20260505032002 | 1 | 300 | 0.0 | 0.0 | 0.08 | 0.58 | 0.58 | 93 | 1014.2 |
| 20260505031501 | 1 | 299 | 0.0 | 0.0 | 0.10 | 0.58 | 0.58 | 93 | 1014.1 |
| 20260505031001 | 1 | 300 | 0.0 | 0.0 | 0.15 | 0.58 | 0.58 | 93 | 1013.9 |
| 20260505030501 | 1 | 300 | 0.0 | 0.0 | 0.23 | 0.58 | 0.58 | 93 | 1013.9 |
| 20260505025600 | 0 | 290 | 0.0 | 0.0 | 0.30 | 0.56 | 0.56 | 92 | 1014.0 |
| 20260505025059 | 1 | 150 | 0.0 | 0.0 | 0.36 | 0.53 | 0.53 | 92 | 1013.8 |
| 20260505024559 | 1 | 152 | 0.0 | 0.0 | 0.43 | 0.53 | 0.53 | 91 | 1013.9 |
| 20260505024059 | 1 | 152 | 0.0 | 1.6 | 0.46 | 0.53 | 0.53 | 91 | 1013.8 |
| 20260505023601 | 1 | 108 | 0.0 | 1.6 | 0.48 | 0.53 | 0.53 | 91 | 1013.6 |
| 20260505023102 | 1 | 160 | 0.0 | 1.6 | 0.48 | 0.53 | 0.53 | 91 | 1013.6 |
| 20260505022558 | 1 | 141 | 0.0 | 1.6 | 0.46 | 0.51 | 0.51 | 90 | 1013.6 |
| 20260505022058 | 1 | 91 | 0.0 | 1.6 | 0.46 | 0.51 | 0.51 | 90 | 1013.6 |
| 20260505021600 | 2 | 252 | 0.0 | 3.2 | 0.43 | 0.48 | 0.48 | 89 | 1013.7 |
| 20260505021057 | 2 | 295 | 0.0 | 9.7 | 0.38 | 0.43 | 0.43 | 88 | 1013.6 |
| 20260505020558 | 2 | 304 | 4.8 | 9.7 | 0.30 | 0.36 | 0.36 | 87 | 1013.6 |
| 20260505020059 | 3 | 280 | 3.2 | 11.3 | 0.28 | 0.30 | 0.30 | 86 | 1013.5 |
| 20260505015555 | 3 | 309 | 3.2 | 19.3 | 0.23 | 0.25 | 0.25 | 86 | 1013.4 |
| 20260505015054 | 4 | 328 | 11.3 | 19.3 | 0.15 | 0.18 | 0.18 | 82 | 1013.3 |
| 20260505014554 | 5 | 333 | 1.6 | 4.8 | 0.08 | 0.10 | 0.10 | 84 | 1012.8 |
| 20260505014053 | 5 | 142 | 0.0 | 3.2 | 0.05 | 0.08 | 0.08 | 83 | 1012.4 |
| 20260505013552 | 5 | 48 | 1.6 | 4.8 | 0.03 | 0.05 | 0.05 | 82 | 1012.3 |
| 20260505013052 | 5 | 329 | 0.0 | 3.2 | 0.03 | 0.05 | 0.05 | 82 | 1012.3 |
| 20260505012552 | 5 | 41 | 0.0 | 1.6 | 0.03 | 0.05 | 0.05 | 80 | 1012.2 |
| 20260505012052 | 5 | 49 | 0.0 | 3.2 | 0.03 | 0.05 | 0.05 | 79 | 1012.0 |
| 20260505011608 | 5 | 49 | 0.0 | 6.4 | 0.03 | 0.05 | 0.05 | 78 | 1012.1 |
| 20260505011051 | 6 | 95 | 0.0 | 3.2 | 0.03 | 0.05 | 0.05 | 77 | 1012.2 |
| 20260505010551 | 6 | 27 | 0.0 | 8.0 | 0.00 | 0.03 | 0.03 | 75 | 1012.0 |
| 20260505010051 | 6 | 47 | 4.8 | 9.7 | 0.00 | 0.03 | 0.03 | 74 | 1012.0 |
| 20260505005551 | 6 | 6 | 1.6 | 6.4 | 0.00 | 0.03 | 0.03 | 73 | 1012.2 |
| 20260505005051 | 7 | 77 | 1.6 | 8.0 | 0.00 | 0.03 | 0.03 | 70 | 1011.9 |
| 20260505004555 | 7 | 54 | 3.2 | 12.9 | 0.00 | 0.03 | 0.03 | 70 | 1012.0 |
| 20260505004152 | 7 | 41 | 9.7 | 14.5 | 0.00 | 0.03 | 0.03 | 69 | 1012.0 |
| 20260505003549 | 7 | 82 | 8.0 | 16.1 | 0.00 | 0.03 | 0.03 | 65 | 1012.0 |
| 20260505003053 | 8 | 67 | 8.0 | 17.7 | 0.00 | 0.03 | 0.03 | 66 | 1011.7 |
| 20260505002549 | 8 | 98 | 9.7 | 17.7 | 0.00 | 0.03 | 0.03 | 64 | 1011.7 |
| 20260505002050 | 8 | 89 | 6.4 | 16.1 | 0.00 | 0.03 | 0.03 | 61 | 1011.6 |
| 20260505001604 | 8 | 82 | 6.4 | 16.1 | 0.00 | 0.03 | 0.03 | 59 | 1011.6 |
| 20260505001049 | 8 | 91 | 3.2 | 9.7 | 0.00 | 0.03 | 0.03 | 57 | 1011.7 |
| 20260505000549 | 8 | 308 | 3.2 | 8.0 | 0.00 | 0.03 | 0.03 | 57 | 1011.5 |
| 20260505000104 | 9 | 271 | 3.2 | 8.0 | 0.00 | 0.03 | 0.03 | 57 | 1011.6 |
| 20260504235548 | 9 | 240 | 1.6 | 8.0 | 0.00 | 0.03 | 0.03 | 57 | 1011.5 |
| 20260504235051 | 8 | 212 | 3.2 | 16.1 | 0.00 | 0.03 | 0.03 | 57 | 1011.6 |
| 20260504234550 | 8 | 270 | 6.4 | 17.7 | 0.00 | 0.03 | 0.03 | 57 | 1011.6 |
| 20260504234047 | 9 | 242 | 9.7 | 17.7 | 0.00 | 0.03 | 0.03 | 57 | 1011.8 |
| 20260504233547 | 8 | 283 | 6.4 | 14.5 | 0.00 | 0.03 | 0.03 | 58 | 1011.6 |
| 20260504233102 | 8 | 302 | 6.4 | 19.3 | 0.00 | 0.03 | 0.03 | 59 | 1011.5 |
| 20260504232547 | 8 | 279 | 9.7 | 19.3 | 0.00 | 0.03 | 0.03 | 60 | 1011.6 |
| 20260504232049 | 7 | 158 | 8.0 | 24.1 | 0.00 | 0.03 | 0.03 | 61 | 1011.7 |
| 20260504231547 | 7 | 304 | 4.8 | 17.7 | 0.00 | 0.03 | 0.03 | 62 | 1011.9 |
| 20260504231048 | 7 | 218 | 3.2 | 17.7 | 0.00 | 0.03 | 0.03 | 63 | 1011.8 |
| 20260504230548 | 7 | 55 | 0.0 | 3.2 | 0.00 | 0.03 | 0.03 | 67 | 1011.7 |
| 20260504230046 | 7 | 82 | 0.0 | 3.2 | 0.00 | 0.03 | 0.03 | 69 | 1011.5 |
| 20260504225549 | 7 | 72 | 0.0 | 3.2 | 0.00 | 0.03 | 0.03 | 69 | 1011.2 |
| 20260504225045 | 7 | 149 | 0.0 | 6.4 | 0.03 | 0.03 | 0.03 | 68 | 1011.2 |
| 20260504224546 | 7 | 170 | 1.6 | 11.3 | 0.03 | 0.03 | 0.03 | 68 | 1011.1 |
| 20260504224045 | 7 | 239 | 1.6 | 16.1 | 0.03 | 0.03 | 0.03 | 67 | 1011.2 |
| 20260504223545 | 7 | 257 | 1.6 | 20.9 | 0.03 | 0.03 | 0.03 | 70 | 1011.5 |
| 20260504223047 | 6 | 252 | 8.0 | 20.9 | 0.03 | 0.03 | 0.03 | 71 | 1011.5 |
| 20260504222549 | 6 | 272 | 6.4 | 14.5 | 0.03 | 0.03 | 0.03 | 76 | 1011.7 |
| 20260504222047 | 6 | 281 | 4.8 | 14.5 | 0.03 | 0.03 | 0.03 | 77 | 1012.0 |
| 20260504221544 | 6 | 284 | 3.2 | 14.5 | 0.03 | 0.03 | 0.03 | 80 | 1012.1 |
| 20260504221044 | 6 | 291 | 4.8 | 14.5 | 0.03 | 0.03 | 0.03 | 79 | 1012.2 |
| 20260504220543 | 6 | 311 | 4.8 | 17.7 | 0.03 | 0.03 | 0.03 | 78 | 1012.3 |
| 20260504220042 | 6 | 260 | 8.0 | 20.9 | 0.03 | 0.03 | 0.03 | 76 | 1012.4 |
| 20260504215541 | 7 | 273 | 8.0 | 24.1 | 0.03 | 0.03 | 0.03 | 69 | 1012.6 |
| 20260504215040 | 8 | 289 | 6.4 | 25.7 | 0.00 | 0.00 | 0.00 | 57 | 1012.7 |
| 20260504214541 | 9 | 310 | 9.7 | 25.7 | 0.00 | 0.00 | 0.00 | 49 | 1012.4 |
| 20260504214040 | 9 | 249 | 3.2 | 17.7 | 0.00 | 0.00 | 0.00 | 48 | 1011.7 |
| 20260504213539 | 10 | 309 | 8.0 | 17.7 | 0.00 | 0.00 | 0.00 | 47 | 1011.0 |
| 20260504213039 | 10 | 109 | 8.0 | 20.9 | 0.00 | 0.00 | 0.00 | 43 | 1011.1 |
| 20260504212540 | 12 | 89 | 4.8 | 17.7 | 0.00 | 0.00 | 0.00 | 39 | 1011.1 |
| 20260504212040 | 12 | 142 | 11.3 | 17.7 | 0.00 | 0.00 | 0.00 | 31 | 1010.9 |
| 20260504211539 | 12 | 288 | 0.0 | 12.9 | 0.00 | 0.00 | 0.00 | 32 | 1010.7 |
| 20260504211040 | 12 | 330 | 1.6 | 12.9 | 0.00 | 0.00 | 0.00 | 33 | 1010.7 |
| 20260504210538 | 12 | 201 | 1.6 | 11.3 | 0.00 | 0.00 | 0.00 | 33 | 1010.6 |
| 20260504210038 | 12 | 162 | 3.2 | 22.5 | 0.00 | 0.00 | 0.00 | 34 | 1010.8 |
| 20260504205541 | 12 | 245 | 9.7 | 22.5 | 0.00 | 0.00 | 0.00 | 34 | 1010.8 |
| 20260504205036 | 13 | 351 | 3.2 | 17.7 | 0.00 | 0.00 | 0.00 | 34 | 1010.9 |
| 20260504204536 | 13 | 246 | 4.8 | 30.6 | 0.00 | 0.00 | 0.00 | 34 | 1010.9 |
| 20260504204036 | 13 | 300 | 6.4 | 30.6 | 0.00 | 0.00 | 0.00 | 35 | 1010.8 |
| 20260504203537 | 13 | 268 | 11.3 | 24.1 | 0.00 | 0.00 | 0.00 | 34 | 1010.9 |
| 20260504203034 | 12 | 310 | 14.5 | 24.1 | 0.00 | 0.00 | 0.00 | 35 | 1010.9 |
| 20260504202535 | 12 | 332 | 6.4 | 24.1 | 0.00 | 0.00 | 0.00 | 38 | 1011.0 |
| 20260504202034 | 12 | 308 | 8.0 | 24.1 | 0.00 | 0.00 | 0.00 | 40 | 1011.1 |
| 20260504201530 | 12 | 245 | 12.9 | 35.4 | 0.00 | 0.00 | 0.00 | 39 | 1011.3 |
| 20260504201029 | 11 | 298 | 12.9 | 22.5 | 0.00 | 0.00 | 0.00 | 41 | 1011.3 |
| 20260504200530 | 11 | 276 | 6.4 | 16.1 | 0.00 | 0.00 | 0.00 | 43 | 1011.5 |
| 20260504200029 | 11 | 322 | 9.7 | 16.1 | 0.00 | 0.00 | 0.00 | 46 | 1011.7 |
| 20260504195527 | 11 | 103 | 8.0 | 14.5 | 0.00 | 0.00 | 0.00 | 46 | 1011.8 |
| 20260504195027 | 10 | 217 | 1.6 | 16.1 | 0.00 | 0.00 | 0.00 | 51 | 1012.1 |
| 20260504194531 | 9 | 305 | 4.8 | 16.1 | 0.00 | 0.00 | 0.00 | 50 | 1012.2 |
| 20260504194026 | 9 | 293 | 3.2 | 14.5 | 0.00 | 0.00 | 0.00 | 49 | 1012.5 |
| 20260504193527 | 8 | 266 | 4.8 | 14.5 | 0.00 | 0.00 | 0.00 | 50 | 1012.5 |
| 20260504193027 | 8 | 302 | 3.2 | 19.3 | 0.00 | 0.00 | 0.00 | 50 | 1012.5 |
| 20260504192526 | 8 | 271 | 4.8 | 19.3 | 0.00 | 0.00 | 0.00 | 51 | 1012.6 |
| 20260504192026 | 8 | 146 | 4.8 | 16.1 | 0.00 | 0.00 | 0.00 | 50 | 1012.5 |
| 20260504191525 | 9 | 297 | 3.2 | 19.3 | 0.00 | 0.00 | 0.00 | 49 | 1012.6 |
| 20260504191025 | 10 | 301 | 8.0 | 19.3 | 0.00 | 0.00 | 0.00 | 46 | 1012.6 |
| 20260504190525 | 10 | 278 | 8.0 | 14.5 | 0.00 | 0.00 | 0.00 | 46 | 1012.3 |
| 20260504190026 | 10 | 263 | 3.2 | 24.1 | 0.00 | 0.00 | 0.00 | 43 | 1012.2 |
| 20260504185524 | 10 | 203 | 9.7 | 24.1 | 0.00 | 0.00 | 0.00 | 41 | 1012.2 |
| 20260504185024 | 10 | 354 | 8.0 | 20.9 | 0.00 | 0.00 | 0.00 | 39 | 1012.0 |